This is the latest recevied weather packets stored in our database for station/object N8ESC. If no packets are shown the sender has not sent any weather packets the latest 10 day(s).
| Time | Temp. | Humidity | Pressure | Rain* | Wind** | Luminosity | Snow |
|---|---|---|---|---|---|---|---|
| 1777670174 | 6.11° C | 44% | 1015.6 hPa | 0 mm | - | 215 W/m² | - |
| 1777669872 | 5.56° C | 45% | 1015.7 hPa | 0 mm | - | 188 W/m² | - |
| 1777669569 | 6.67° C | 45% | 1015.6 hPa | 0 mm | - | 183 W/m² | - |
| 1777669265 | 6.11° C | 48% | 1015.4 hPa | 0 mm | - | 237 W/m² | - |
| 1777668961 | 6.11° C | 50% | 1015.7 hPa | 0 mm | - | 194 W/m² | - |
| 1777668659 | 6.11° C | 54% | 1015.7 hPa | 0 mm | - | 162 W/m² | - |
| 1777668355 | 6.11° C | 54% | 1015.7 hPa | 0 mm | - | 230 W/m² | - |
| 1777668051 | 5.56° C | 56% | 1015.7 hPa | 0 mm | - | 228 W/m² | - |
| 1777667748 | 5° C | 60% | 1015.8 hPa | 0 mm | - | 234 W/m² | - |
| 1777667446 | 5° C | 60% | 1015.5 hPa | 0 mm | - | 248 W/m² | - |
| 1777667143 | 5.56° C | 63% | 1015.6 hPa | 0 mm | - | 329 W/m² | - |
| 1777666839 | 5° C | 66% | 1015.5 hPa | 0 mm | - | 448 W/m² | - |
| 1777666537 | 4.44° C | 71% | 1015.8 hPa | 0 mm | - | 447 W/m² | - |
| 1777666233 | 4.44° C | 73% | 1015.7 hPa | 0 mm | - | 411 W/m² | - |
| 1777665930 | 3.89° C | 77% | 1015.9 hPa | 0 mm | - | 312 W/m² | - |
| 1777665627 | 3.89° C | 77% | 1016 hPa | 0 mm | - | 241 W/m² | - |
| 1777665325 | 3.33° C | 75% | 1016.3 hPa | 0 mm | - | 172 W/m² | - |
| 1777665020 | 3.33° C | 78% | 1016.2 hPa | 0 mm | - | 155 W/m² | - |
| 1777664716 | 2.78° C | 80% | 1016 hPa | 0 mm | - | 135 W/m² | - |
| 1777664412 | 3.89° C | 74% | 1015.9 hPa | 0 mm | - | 123 W/m² | - |
| 1777664110 | 4.44° C | 68% | 1016.1 hPa | 0 mm | - | 122 W/m² | - |
| 1777663808 | 4.44° C | 68% | 1015.9 hPa | 0 mm | - | 219 W/m² | - |
| 1777663505 | 4.44° C | 67% | 1016.2 hPa | 0 mm | - | 260 W/m² | - |
| 1777663202 | 3.89° C | 70% | 1015.7 hPa | 0 mm | - | 398 W/m² | - |
| 1777662899 | 5° C | 64% | 1016.2 hPa | 0 mm | - | 428 W/m² | - |
* Rain latest hour (hover to see other rain measurements)
** Current wind speed in m/s (hover to see current wind gust speed)